Weather in Burunskoye

Russia / Chechen Republic     43°51′33″N   45°46′40″E
temp.,
°C
wind,
m/s
gust,
m/s
humid.,
%
clouds,
%
prec.,
mm/h
press.,
hPa
HPBL,
m
5 august, thu
thu500:00+29w71244100 0.0 1011343
03:00+27wsw5946100 0.0 1010222
06:00+27w7104994 0.0 1012283
09:00+32wnw66355 0.0 1012841
12:00+37nw44242 0.0 10111706
15:00+39n221999 0.0 10092829
18:00+34ene78273 0.1 1010620
21:00+29s23396 0.3 101068
6 august, fri
fri600:00+28ene47400 0.0 1010179
03:00+25ene36580 0.0 1010166
06:00+25ene37620 0.0 1010293
09:00+32ese56350 0.0 1010889
12:00+38e57200 0.0 10082234
15:00+40e98160 0.0 10052876
18:00+35e89210 0.0 10051332
21:00+28e713420 0.0 1006559
7 august, sat
sat700:00+25e512670 0.0 1006414
03:00+24e497589 0.0 1005290
06:00+24ese37764 0.0 1005252
09:00+31ese45423 0.0 1004723
12:00+39se35180 0.0 10021616
15:00+43ese55115 0.0 10002809
18:00+38e1013150 0.0 1001862
21:00+32e71526100 0.0 1002504
8 august, sun
sun800:00+27ne01496 0.0 100415
03:00+27w7125359 0.0 1005394
06:00+26w6115733 0.0 1007416
09:00+31w784038 0.0 1008930
12:00+37wnw66282 0.0 10081556
15:00+39nw43240 0.0 10072310
18:00+38nw33255 0.0 10081756
21:00+31wsw46435 0.9 1009107
9 august, mon
mon900:00+26w586441 0.1 1011215
03:00+25wnw5106818 0.1 1011253
06:00+26w466489 0.0 1012215
09:00+32nw33405 0.0 1011822
12:00+37nne32272 0.0 10102014
15:00+39nne33240 0.0 10092469
18:00+38ne3425100 0.2 10091391
21:00+29s2455100 3.4 1011105